Location: *
(46.3500°N, 10.9000°E)
Time: 21:47:08
(UTC+00:00)

Explorer 7 - Pass Details

Date: 20 April 2021
Orbit: 484 x 677 km, 50.3° (Epoch: 05 May)

Event Time Altitude Azimuth Distance (km) Brightness Sun altitude
Rises 20:34:20 0° 259° (W) 2,666 10.8 -21.6°
Reaches altitude 10° 20:36:30 10° 263° (W) 1,806 9.9 -21.8°
Maximum altitude 20:40:35 63° 345° (NNW) 637 7.2 -22.3°
Enters shadow 20:42:35 30° 57° (ENE) 1,054 8.1 -22.5°
Drops below altitude 10° 20:44:58 10° 67° (ENE) 1,933 - -22.8°
Sets 20:47:22 0° 71° (ENE) 2,872 - -23.1°
